| time (UTC) | temp F | wind direction | speed MPH | gust MPH | rain 1hr in | rain 24hr in | rain mn in | humidity % | barometer mb |
| 20260507154323 | 53 | 0 | 9.0 | 11.0 | 0.00 | 0.00 | 0.00 | ||
| 20260507150816 | 52 | 355 | 5.0 | 7.0 | 0.00 | 0.00 | 0.00 | ||
| 20260507150315 | 52 | 348 | 6.0 | 7.0 | 0.00 | 0.00 | 0.00 | ||
| 20260507145814 | 52 | 4 | 6.0 | 7.0 | 0.00 | 0.00 | 0.00 | ||
| 20260507144316 | 52 | 357 | 6.0 | 10.0 | 0.00 | 0.00 | 0.00 | ||
| 20260507143309 | 52 | 19 | 7.0 | 9.0 | 0.00 | 0.00 | 0.00 | ||
| 20260507142308 | 51 | 355 | 6.0 | 8.0 | 0.00 | 0.00 | 0.00 | ||
| 20260507135301 | 51 | 28 | 4.0 | 6.0 | 0.00 | 0.00 | 0.00 | ||
| 20260507134300 | 51 | 1 | 4.0 | 8.0 | 0.00 | 0.00 | 0.00 | ||
| 20260507132756 | 51 | 9 | 5.0 | 6.0 | 0.00 | 0.00 | 0.00 | ||
| 20260507130844 | 51 | 0 | 0.0 | 0.0 | 0.00 | 0.00 | 0.00 | ||
| 20260507130752 | 51 | 0 | 0.0 | 0.0 | 0.00 | 0.00 | 0.00 | ||
| 20260507130251 | 51 | 0 | 0.0 | 0.0 | 0.00 | 0.00 | 0.00 | ||
| 20260507115738 | 51 | 18 | 5.0 | 7.0 | 0.00 | 0.00 | 0.00 | ||
| 20260507114735 | 52 | 28 | 3.0 | 5.0 | 0.00 | 0.00 | 0.00 | ||
| 20260507111730 | 52 | 37 | 4.0 | 8.0 | 0.00 | 0.00 | 0.00 | ||
| 20260507102719 | 52 | 26 | 6.0 | 8.0 | 0.00 | 0.00 | 0.00 | ||
| 20260507101717 | 52 | 35 | 5.0 | 8.0 | 0.00 | 0.00 | 0.00 | ||
| 20260507101216 | 53 | 12 | 6.0 | 8.0 | 0.00 | 0.00 | 0.00 | ||
| 20260507100214 | 53 | 23 | 0.0 | 8.0 | 0.00 | 0.00 | 0.00 | ||
| 20260507095714 | 53 | 14 | 1.0 | 8.0 | 0.00 | 0.00 | 0.00 | ||
| 20260507094712 | 53 | 29 | 6.0 | 6.0 | 0.00 | 0.00 | 0.00 | ||
| 20260507093709 | 53 | 29 | 0.0 | 6.0 | 0.00 | 0.00 | 0.00 | ||
| 20260507090704 | 53 | 0 | 0.0 | 0.0 | 0.00 | 0.00 | 0.00 | ||
| 20260507045112 | 54 | 19 | 0.0 | 6.0 | 0.00 | 0.00 | 0.00 | ||
| 20260507043612 | 54 | 19 | 0.0 | 4.0 | 0.00 | 0.00 | 0.00 | ||
| 20260507042106 | 54 | 352 | 1.0 | 10.0 | 0.00 | 0.00 | 0.00 | ||
| 20260507041605 | 54 | 1 | 5.0 | 10.0 | 0.00 | 0.00 | 0.00 | ||
| 20260507041105 | 54 | 15 | 7.0 | 10.0 | 0.00 | 0.00 | 0.00 | ||
| 20260507034058 | 54 | 1 | 7.0 | 9.0 | 0.00 | 0.00 | 0.00 | ||
| 20260507033649 | 54 | 8 | 6.0 | 9.0 | 0.00 | 0.00 | 0.00 | ||
| 20260507033558 | 54 | 8 | 6.0 | 9.0 | 0.00 | 0.00 | 0.00 | ||
| 20260507033056 | 54 | 7 | 5.0 | 9.0 | 0.00 | 0.00 | 0.00 | ||
| 20260507032054 | 54 | 1 | 7.0 | 8.0 | 0.00 | 0.00 | 0.00 | ||
| 20260507031052 | 54 | 350 | 4.0 | 10.0 | 0.00 | 0.00 | 0.00 | ||
| 20260507025549 | 54 | 1 | 7.0 | 10.0 | 0.00 | 0.00 | 0.00 | ||
| 20260507025048 | 54 | 0 | 8.0 | 10.0 | 0.00 | 0.00 | 0.00 | ||
| 20260507024547 | 54 | 357 | 8.0 | 10.0 | 0.00 | 0.00 | 0.00 | ||
| 20260507024046 | 54 | 2 | 7.0 | 10.0 | 0.00 | 0.00 | 0.00 | ||
| 20260507023545 | 54 | 354 | 8.0 | 9.0 | 0.00 | 0.00 | 0.00 | ||
| 20260507023044 | 54 | 341 | 7.0 | 9.0 | 0.00 | 0.00 | 0.00 | ||
| 20260507020540 | 54 | 355 | 5.0 | 7.0 | 0.00 | 0.00 | 0.00 | ||
| 20260507015538 | 54 | 357 | 5.0 | 8.0 | 0.00 | 0.00 | 0.00 | ||
| 20260507015037 | 55 | 337 | 6.0 | 8.0 | 0.00 | 0.00 | 0.00 | ||
| 20260507014035 | 55 | 357 | 5.0 | 8.0 | 0.00 | 0.00 | 0.00 | ||
| 20260507013533 | 55 | 355 | 6.0 | 8.0 | 0.00 | 0.00 | 0.00 | ||
| 20260507013033 | 55 | 9 | 5.0 | 8.0 | 0.00 | 0.00 | 0.00 | ||
| 20260507011529 | 55 | 345 | 6.0 | 8.0 | 0.00 | 0.00 | 0.00 | ||
| 20260507010529 | 55 | 355 | 5.0 | 8.0 | 0.00 | 0.00 | 0.00 | ||
| 20260507010027 | 55 | 354 | 5.0 | 8.0 | 0.00 | 0.00 | 0.00 | ||
| 20260507002519 | 55 | 333 | 6.0 | 7.0 | 0.00 | 0.00 | 0.00 | ||
| 20260507002018 | 55 | 327 | 5.0 | 7.0 | 0.00 | 0.00 | 0.00 | ||
| 20260507000516 | 56 | 338 | 0.0 | 8.0 | 0.00 | 0.00 | 0.00 | ||
| 20260506233009 | 56 | 347 | 6.0 | 9.0 | 0.00 | 0.00 | 0.00 | ||
| 20260506231505 | 56 | 329 | 5.0 | 8.0 | 0.00 | 0.00 | 0.00 | ||
| 20260506231004 | 56 | 338 | 6.0 | 8.0 | 0.00 | 0.00 | 0.00 | ||
| 20260506230502 | 56 | 331 | 7.0 | 8.0 | 0.00 | 0.00 | 0.00 | ||
| 20260506230001 | 56 | 317 | 6.0 | 7.0 | 0.00 | 0.00 | 0.00 | ||
| 20260506224959 | 56 | 343 | 6.0 | 9.0 | 0.00 | 0.00 | 0.00 | ||
| 20260506223958 | 57 | 308 | 7.0 | 8.0 | 0.00 | 0.00 | 0.00 | ||
| 20260506223457 | 57 | 298 | 7.0 | 8.0 | 0.00 | 0.00 | 0.00 | ||
| 20260506222956 | 57 | 284 | 6.0 | 8.0 | 0.00 | 0.00 | 0.00 | ||
| 20260506221953 | 58 | 281 | 6.0 | 8.0 | 0.00 | 0.00 | 0.00 | ||
| 20260506221452 | 58 | 275 | 7.0 | 8.0 | 0.00 | 0.00 | 0.00 | ||
| 20260506220951 | 58 | 278 | 6.0 | 8.0 | 0.00 | 0.00 | 0.00 | ||
| 20260506215950 | 58 | 266 | 6.0 | 8.0 | 0.00 | 0.00 | 0.00 | ||
| 20260506214448 | 57 | 277 | 6.0 | 8.0 | 0.00 | 0.00 | 0.00 | ||
| 20260506213444 | 57 | 284 | 6.0 | 8.0 | 0.00 | 0.00 | 0.00 | ||
| 20260506212943 | 57 | 287 | 7.0 | 8.0 | 0.00 | 0.00 | 0.00 | ||
| 20260506212442 | 57 | 294 | 7.0 | 8.0 | 0.00 | 0.00 | 0.00 | ||
| 20260506211941 | 57 | 295 | 7.0 | 8.0 | 0.00 | 0.00 | 0.00 | ||
| 20260506210940 | 57 | 291 | 7.0 | 8.0 | 0.00 | 0.00 | 0.00 | ||
| 20260506205436 | 57 | 288 | 6.0 | 8.0 | 0.00 | 0.00 | 0.00 | ||
| 20260506202934 | 57 | 280 | 7.0 | 7.0 | 0.00 | 0.00 | 0.00 | ||
| 20260506201428 | 57 | 274 | 7.0 | 9.0 | 0.00 | 0.00 | 0.00 | ||
| 20260506200928 | 57 | 271 | 6.0 | 9.0 | 0.00 | 0.00 | 0.00 | ||
| 20260506200426 | 57 | 277 | 7.0 | 9.0 | 0.00 | 0.00 | 0.00 | ||
| 20260506195425 | 57 | 274 | 6.0 | 9.0 | 0.00 | 0.00 | 0.00 | ||
| 20260506194422 | 58 | 280 | 8.0 | 9.0 | 0.00 | 0.00 | 0.00 | ||
| 20260506193420 | 58 | 270 | 4.0 | 9.0 | 0.00 | 0.00 | 0.00 | ||
| 20260506192920 | 58 | 266 | 8.0 | 9.0 | 0.00 | 0.00 | 0.00 | ||
| 20260506192418 | 58 | 260 | 7.0 | 8.0 | 0.00 | 0.00 | 0.00 | ||
| 20260506191917 | 58 | 273 | 6.0 | 8.0 | 0.00 | 0.00 | 0.00 | ||
| 20260506191425 | 58 | 274 | 7.0 | 8.0 | 0.00 | 0.00 | 0.00 | ||
| 20260506191416 | 58 | 274 | 7.0 | 8.0 | 0.00 | 0.00 | 0.00 | ||
| 20260506190915 | 58 | 257 | 5.0 | 7.0 | 0.00 | 0.00 | 0.00 |